Location: Niles Junction
(37.5763°N, 121.9714°W)
Time: 03:31:48
(UTC+00:00)

Cosmos 1833 Rocket - Pass Details

Date: 29 October 2020
Orbit: 832 x 840 km, 71.0° (Epoch: 23 November)

Event Time Altitude Azimuth Distance (km) Brightness Sun altitude
Exits shadow 13:29:07 15° 301° (WNW) 2,133 4.2 -12.7°
Maximum altitude 13:29:44 15° 308° (NW) 2,119 4.3 -12.6°
Drops below altitude 10° 13:32:54 10° 343° (NNW) 2,462 4.9 -12.0°
Sets 13:36:31 0° 6° (N) 3,401 5.8 -11.3°
